Time,TemperatureF,DewpointF,PressureIn,WindDirection,WindDirectionDegrees,WindSpeedMPH,WindSpeedGustMPH,Humidity,HourlyPrecipIn,Conditions,Clouds,dailyrainin,SoftwareType,DateUTC
2013-04-04 10:23:00,43.0,21.0,29.85,West,271,10.0,20.0,41,0.00,,,0.00,,2013-04-04 15:23:00,
2013-04-04 10:33:00,43.0,21.0,29.85,West,274,11.0,24.0,41,0.00,,,0.00,,2013-04-04 15:33:00,
2013-04-04 10:43:00,43.0,21.0,29.85,West,274,11.0,24.0,41,0.00,,,0.00,,2013-04-04 15:43:00,
2013-04-04 10:53:00,43.0,22.0,29.85,West,277,12.0,26.0,42,0.00,,,0.00,,2013-04-04 15:53:00,
2013-04-04 11:03:00,43.0,22.0,29.85,West,275,11.0,21.0,42,0.00,,,0.00,,2013-04-04 16:03:00,
2013-04-04 11:12:00,43.0,22.0,29.85,West,275,11.0,21.0,42,0.00,,,0.00,,2013-04-04 16:12:00,
2013-04-04 11:23:00,43.0,22.0,29.84,WNW,284,13.0,22.0,42,0.00,,,0.00,,2013-04-04 16:23:00,
2013-04-04 11:32:00,44.0,22.0,29.84,West,276,10.0,17.0,42,0.00,,,0.00,,2013-04-04 16:32:00,
2013-04-04 11:42:00,44.0,22.0,29.84,West,276,10.0,17.0,42,0.00,,,0.00,,2013-04-04 16:42:00,
2013-04-04 11:53:00,44.0,22.0,29.84,West,279,11.0,19.0,41,0.00,,,0.00,,2013-04-04 16:53:00,
2013-04-04 12:03:00,45.0,22.0,29.83,West,270,10.0,21.0,40,0.00,,,0.00,,2013-04-04 17:03:00,
2013-04-04 12:13:00,45.0,22.0,29.83,West,270,10.0,21.0,40,0.00,,,0.00,,2013-04-04 17:13:00,
2013-04-04 12:22:00,46.0,23.0,29.83,West,266,11.0,21.0,40,0.00,,,0.00,,2013-04-04 17:22:00,
2013-04-04 12:33:00,46.0,22.0,29.83,West,274,11.0,20.0,39,0.00,,,0.00,,2013-04-04 17:33:00,
2013-04-04 12:42:00,46.0,22.0,29.83,West,274,11.0,20.0,39,0.00,,,0.00,,2013-04-04 17:42:00,
2013-04-04 12:52:00,46.0,24.0,29.82,West,281,10.0,18.0,41,0.00,,,0.00,,2013-04-04 17:52:00,
2013-04-04 13:02:00,46.0,24.0,29.82,West,278,11.0,20.0,41,0.00,,,0.00,,2013-04-04 18:02:00,
2013-04-04 13:12:00,46.0,24.0,29.82,West,278,11.0,20.0,41,0.00,,,0.00,,2013-04-04 18:12:00,
2013-04-04 13:22:00,47.0,25.0,29.82,WNW,296,8.0,14.0,41,0.00,,,0.00,,2013-04-04 18:22:00,
2013-04-04 13:32:00,46.0,25.0,29.80,West,270,8.0,17.0,43,0.00,,,0.00,,2013-04-04 18:32:00,
2013-04-04 13:42:00,46.0,25.0,29.80,West,270,8.0,17.0,43,0.00,,,0.00,,2013-04-04 18:42:00,
2013-04-04 13:52:00,46.0,25.0,29.80,West,271,7.0,12.0,43,0.00,,,0.00,,2013-04-04 18:52:00,
2013-04-04 14:02:00,44.0,28.0,29.80,NW,321,8.0,18.0,53,0.00,,,0.00,,2013-04-04 19:02:00,
2013-04-04 14:12:00,44.0,28.0,29.80,NW,321,8.0,18.0,53,0.00,,,0.00,,2013-04-04 19:12:00,
2013-04-04 14:22:00,44.0,30.0,29.80,NNW,329,7.0,12.0,58,0.00,,,0.00,,2013-04-04 19:22:00,
2013-04-04 14:32:00,44.0,30.0,29.80,NW,322,5.0,10.0,58,0.00,,,0.00,,2013-04-04 19:32:00,
2013-04-04 14:42:00,44.0,30.0,29.80,NW,322,5.0,10.0,58,0.00,,,0.00,,2013-04-04 19:42:00,
2013-04-04 14:52:00,46.0,31.0,29.79,WNW,293,6.0,10.0,56,0.00,,,0.00,,2013-04-04 19:52:00,
2013-04-04 15:03:00,46.0,31.0,29.79,NW,312,5.0,10.0,56,0.00,,,0.00,,2013-04-04 20:03:00,
2013-04-04 15:12:00,46.0,31.0,29.79,NW,312,5.0,10.0,56,0.00,,,0.00,,2013-04-04 20:12:00,
2013-04-04 15:22:00,46.0,30.0,29.79,NW,312,6.0,13.0,54,0.00,,,0.00,,2013-04-04 20:22:00,
2013-04-04 15:32:00,47.0,30.0,29.78,WNW,296,7.0,12.0,52,0.00,,,0.00,,2013-04-04 20:32:00,
2013-04-04 15:42:00,47.0,30.0,29.78,WNW,296,7.0,12.0,52,0.00,,,0.00,,2013-04-04 20:42:00,
2013-04-04 15:52:00,48.0,30.0,29.77,WNW,295,8.0,13.0,49,0.00,,,0.00,,2013-04-04 20:52:00,
2013-04-04 16:02:00,48.0,29.0,29.77,NW,307,8.0,16.0,48,0.00,,,0.00,,2013-04-04 21:02:00,
2013-04-04 16:12:00,48.0,29.0,29.77,NW,307,8.0,16.0,48,0.00,,,0.00,,2013-04-04 21:12:00,
2013-04-04 16:22:00,48.0,30.0,29.77,WNW,296,8.0,16.0,49,0.00,,,0.00,,2013-04-04 21:22:00,
2013-04-04 16:32:00,49.0,30.0,29.77,WNW,286,8.0,14.0,48,0.00,,,0.00,,2013-04-04 21:32:00,
2013-04-04 16:43:00,49.0,30.0,29.77,WNW,286,8.0,14.0,48,0.00,,,0.00,,2013-04-04 21:43:00,
2013-04-04 16:52:00,49.0,30.0,29.77,WNW,286,8.0,14.0,48,0.00,,,0.00,,2013-04-04 21:52:00,
2013-04-04 17:03:00,50.0,31.0,29.77,WNW,288,7.0,11.0,47,0.00,,,0.00,,2013-04-04 22:03:00,
2013-04-04 17:12:00,50.0,31.0,29.77,WNW,288,7.0,11.0,47,0.00,,,0.00,,2013-04-04 22:12:00,
2013-04-04 17:23:00,50.0,31.0,29.77,WNW,294,6.0,11.0,47,0.00,,,0.00,,2013-04-04 22:23:00,
2013-04-04 17:33:00,50.0,31.0,29.77,WNW,294,6.0,11.0,47,0.00,,,0.00,,2013-04-04 22:33:00,
2013-04-04 17:42:00,50.0,31.0,29.77,WNW,294,6.0,11.0,47,0.00,,,0.00,,2013-04-04 22:42:00,
2013-04-04 17:53:00,50.0,31.0,29.77,WNW,282,8.0,18.0,47,0.00,,,0.00,,2013-04-04 22:53:00,
2013-04-04 18:02:00,50.0,31.0,29.77,West,277,6.0,12.0,47,0.00,,,0.00,,2013-04-04 23:02:00,
2013-04-04 18:12:00,50.0,31.0,29.77,West,277,6.0,12.0,47,0.00,,,0.00,,2013-04-04 23:12:00,
2013-04-04 18:22:00,50.0,31.0,29.77,West,279,6.0,12.0,47,0.00,,,0.00,,2013-04-04 23:22:00,
2013-04-04 18:32:00,50.0,31.0,29.78,West,271,6.0,8.0,48,0.00,,,0.00,,2013-04-04 23:32:00,
2013-04-04 18:42:00,50.0,31.0,29.78,West,271,6.0,8.0,48,0.00,,,0.00,,2013-04-04 23:42:00,
2013-04-04 18:52:00,49.0,30.0,29.78,WNW,287,5.0,10.0,48,0.00,,,0.00,,2013-04-04 23:52:00,
2013-04-04 19:02:00,49.0,30.0,29.78,WNW,287,5.0,10.0,48,0.00,,,0.00,,2013-04-05 00:02:00,
2013-04-04 19:12:00,49.0,30.0,29.78,WNW,287,5.0,10.0,48,0.00,,,0.00,,2013-04-05 00:12:00,
2013-04-04 19:22:00,48.0,30.0,29.78,West,281,3.0,7.0,50,0.00,,,0.00,,2013-04-05 00:22:00,
2013-04-04 19:32:00,47.0,30.0,29.78,WNW,283,2.0,6.0,52,0.00,,,0.00,,2013-04-05 00:32:00,
2013-04-04 19:42:00,47.0,30.0,29.78,WNW,283,2.0,6.0,52,0.00,,,0.00,,2013-04-05 00:42:00,
2013-04-04 19:52:00,46.0,31.0,29.79,West,269,1.0,5.0,55,0.00,,,0.00,,2013-04-05 00:52:00,
2013-04-04 20:02:00,46.0,31.0,29.79,NW,307,2.0,6.0,56,0.00,,,0.00,,2013-04-05 01:02:00,
2013-04-04 20:12:00,46.0,31.0,29.79,NW,307,2.0,6.0,56,0.00,,,0.00,,2013-04-05 01:12:00,
2013-04-04 20:20:00,42.0,29.0,29.81,NNW,346,0.0,2.0,60,0.00,,,0.00,,2013-04-05 01:20:00,
2013-04-04 20:22:00,45.0,31.0,29.79,NNW,339,4.0,7.0,58,0.00,,,0.00,,2013-04-05 01:22:00,
2013-04-04 20:32:00,43.0,30.0,29.80,North,352,3.0,7.0,59,0.00,,,0.00,,2013-04-05 01:32:00,
2013-04-04 20:42:00,43.0,30.0,29.80,North,352,3.0,7.0,59,0.00,,,0.00,,2013-04-05 01:42:00,
2013-04-04 20:52:00,42.0,29.0,29.81,NNW,346,0.0,2.0,60,0.00,,,0.00,,2013-04-05 01:52:00,
2013-04-04 21:03:00,42.0,29.0,29.81,NNW,346,0.0,2.0,60,0.00,,,0.00,,2013-04-05 02:03:00,
2013-04-04 21:12:00,42.0,29.0,29.81,NNW,346,0.0,2.0,60,0.00,,,0.00,,2013-04-05 02:12:00,